Weather History for Monarch Pass, CO

Change the Weather History Date:

Tuesday, November 22, 2011

  Actual Average (KGUC) Record (KGUC)
Temperature  
Mean Temperature 20 °F -  
Max Temperature 23 °F 35 °F 53 °F (2012)
Min Temperature 17 °F 11 °F 0 °F (2007)
Degree Days  
Heating Degree Days 45    
Moisture  
Dew Point 18 °F    
Average Humidity 91    
Maximum Humidity 100    
Minimum Humidity 80    
Precipitation  
Precipitation 0.00 in - - ()
Sea Level Pressure  
Sea Level Pressure 30.38 in    
Wind  
Wind Speed - (North)    
Max Wind Speed -    
Max Gust Speed -    
Visibility 4 miles    
Events Fog , Snow    
Averages and records for this station are not official NWS values.
T = Trace of Precipitation, MM = Missing Value Source: NWS Daily Summary

Daily Weather History Graph

Daily Weather History Graph

Search for Another Location

Airport:

Trip Planner

Search our weather history database for the weather conditions in past years. The results will help you decide how hot, cold, wet, or windy it might be!

Date:

Astronomy

Nov. 22, 2011 Rise Set
Actual Time 6:54 AM MST 4:48 PM MST
Civil Twilight 6:25 AM MST 5:16 PM MST
Nautical Twilight 5:53 AM MST 5:49 PM MST
Astronomical Twilight 5:21 AM MST 6:20 PM MST
Moon 3:49 AM MST (11/22) 2:48 PM MST (11/22)
Length of Visible Light 10h 51m
Length of Day
9h 53m
Waning Crescent, 9% of the Moon is Illuminated
Nov 22
Waning Crescent
Nov 24
New
Dec 2
First Quarter
Dec 10
Full
Dec 17
Last Quarter

Hourly Weather History & Observations

Time (MST) Temp. Dew Point Humidity Pressure Visibility Wind Dir Wind Speed Gust Speed Precip Events Conditions
12:04 AM 19.4 °F 17.6 °F 93% 30.30 in 0.2 mi North - - N/A Snow Heavy Snow
12:24 AM 19.4 °F 17.6 °F 93% 30.30 in 0.2 mi North - - N/A Snow Heavy Snow
12:44 AM 19.4 °F 17.6 °F 93% 30.30 in 0.2 mi North - - N/A Snow Heavy Snow
1:04 AM 19.4 °F 17.6 °F 93% 30.30 in 0.2 mi North - - N/A Snow Light Snow
1:24 AM 19.4 °F 17.6 °F 93% 30.30 in 0.2 mi North - - N/A Snow Heavy Snow
1:44 AM 19.4 °F 15.8 °F 86% 30.30 in 0.2 mi North - - N/A Snow Heavy Snow
2:04 AM 19.4 °F 15.8 °F 86% 30.29 in 0.2 mi North - - N/A Snow Heavy Snow
2:24 AM 19.4 °F 17.6 °F 93% 30.29 in 0.2 mi North - - N/A Snow Heavy Snow
2:44 AM 19.4 °F 17.6 °F 93% 30.30 in 0.2 mi North - - N/A Snow Heavy Snow
3:04 AM 19.4 °F 17.6 °F 93% 30.30 in 0.2 mi North - - N/A Snow Heavy Snow
3:24 AM 19.4 °F 17.6 °F 93% 30.30 in 0.2 mi North - - N/A Snow Heavy Snow
3:44 AM 19.4 °F 17.6 °F 93% 30.30 in 0.2 mi North - - N/A Snow Heavy Snow
4:04 AM 19.4 °F 17.6 °F 93% 30.30 in 0.2 mi North - - N/A Snow Heavy Snow
4:24 AM 19.4 °F 17.6 °F 93% 30.29 in 0.2 mi North - - N/A Snow Heavy Snow
4:44 AM 19.4 °F 17.6 °F 93% 30.29 in 0.2 mi North - - N/A Snow Heavy Snow
5:04 AM 19.4 °F 15.8 °F 86% 30.31 in 0.2 mi North - - N/A Snow Heavy Snow
5:24 AM 19.4 °F 15.8 °F 86% 30.31 in 0.2 mi North - - N/A Snow Heavy Snow
5:44 AM 19.4 °F 15.8 °F 86% 30.32 in 0.2 mi North - - N/A Snow Heavy Snow
6:04 AM 17.6 °F 15.8 °F 93% 30.30 in 0.2 mi North - - N/A Snow Heavy Snow
6:44 AM 17.6 °F 15.8 °F 93% 30.31 in 0.2 mi North - - N/A Snow Heavy Snow
7:04 AM 17.6 °F 15.8 °F 93% 30.31 in 0.2 mi North - - N/A Snow Heavy Snow
7:24 AM 17.6 °F 15.8 °F 93% 30.31 in 0.2 mi North - - N/A Snow Heavy Snow
7:44 AM 17.6 °F 15.8 °F 93% 30.34 in 0.2 mi North - - N/A Fog Light Freezing Fog
8:24 AM 17.6 °F 15.8 °F 93% 30.36 in 0.5 mi North - - N/A Fog Light Freezing Fog
8:44 AM 19.4 °F 15.8 °F 86% 30.37 in 0.5 mi North - - N/A Fog Light Freezing Fog
9:04 AM 19.4 °F 17.6 °F 93% 30.36 in 0.5 mi North - - N/A Fog Light Freezing Fog
9:24 AM 19.4 °F 17.6 °F 93% 30.38 in 0.5 mi North - - N/A Fog Light Freezing Fog
9:44 AM 19.4 °F 17.6 °F 93% 30.39 in 0.2 mi North - - N/A Snow Heavy Snow
10:04 AM 19.4 °F 17.6 °F 93% 30.38 in 0.2 mi North - - N/A Snow Light Snow
10:24 AM 19.4 °F 17.6 °F 93% 30.39 in 0.2 mi North - - N/A Snow Light Snow
10:44 AM 19.4 °F 17.6 °F 93% 30.40 in 0.2 mi North - - N/A Snow Light Snow
11:04 AM 21.2 °F 19.4 °F 93% 30.40 in 0.2 mi North - - N/A Snow Light Snow
11:24 AM 21.2 °F 19.4 °F 93% 30.40 in 0.2 mi North - - N/A Snow Light Snow
11:44 AM 21.2 °F 19.4 °F 93% 30.39 in 0.2 mi North - - N/A Snow Light Snow
12:04 PM 21.2 °F 19.4 °F 93% 30.39 in 10.0 mi North - - N/A   Overcast
12:24 PM 21.2 °F 21.2 °F 100% 30.39 in 10.0 mi North - - N/A   Mostly Cloudy
12:44 PM 21.2 °F 21.2 °F 100% 30.39 in 10.0 mi North - - N/A   Mostly Cloudy
1:04 PM 23.0 °F 21.2 °F 93% 30.39 in 10.0 mi North - - N/A   Overcast
1:24 PM 23.0 °F 21.2 °F 93% 30.38 in 10.0 mi North - - N/A   Overcast
1:44 PM 23.0 °F 21.2 °F 93% 30.38 in 10.0 mi North - - N/A   Mostly Cloudy
2:04 PM 23.0 °F 21.2 °F 93% 30.39 in 7.0 mi North - - N/A   Mostly Cloudy
2:24 PM 23.0 °F 21.2 °F 93% 30.39 in 10.0 mi North - - N/A   Mostly Cloudy
2:44 PM 23.0 °F 21.2 °F 93% 30.39 in 3.0 mi North - - N/A   Mostly Cloudy
3:24 PM 23.0 °F 21.2 °F 93% 30.40 in 3.0 mi North - - N/A   Clear
3:44 PM 23.0 °F 19.4 °F 86% 30.41 in 5.0 mi North - - N/A   Clear
4:44 PM 23.0 °F 17.6 °F 80% 30.44 in 10.0 mi North - - N/A   Clear
5:24 PM 21.2 °F 17.6 °F 86% 30.45 in 10.0 mi North - - N/A   Clear
5:44 PM 21.2 °F 17.6 °F 86% 30.45 in 10.0 mi North - - N/A   Clear
6:04 PM 21.2 °F 17.6 °F 86% 30.46 in 7.0 mi North - - N/A   Clear
6:44 PM 21.2 °F 17.6 °F 86% 30.48 in 10.0 mi North - - N/A   Clear
7:04 PM 21.2 °F 17.6 °F 86% 30.49 in 10.0 mi North - - N/A   Clear
7:24 PM 19.4 °F 17.6 °F 93% 30.50 in 10.0 mi North - - N/A   Clear
7:44 PM 19.4 °F 17.6 °F 93% 30.51 in 10.0 mi North - - N/A   Clear
8:24 PM 19.4 °F 17.6 °F 93% 30.51 in 10.0 mi North - - N/A   Clear
8:44 PM 19.4 °F 17.6 °F 93% 30.53 in 10.0 mi North - - N/A   Clear
9:04 PM 19.4 °F 17.6 °F 93% 30.52 in 10.0 mi North - - N/A   Clear
9:24 PM 19.4 °F 17.6 °F 93% 30.52 in 10.0 mi North - - N/A   Clear
9:44 PM 19.4 °F 15.8 °F 86% 30.52 in 10.0 mi North - - N/A   Clear
10:04 PM 19.4 °F 17.6 °F 93% 30.51 in 10.0 mi North - - N/A   Clear
10:24 PM 19.4 °F 15.8 °F 86% 30.52 in 10.0 mi North - - N/A   Clear
10:44 PM 19.4 °F 15.8 °F 86% 30.53 in 10.0 mi North - - N/A   Clear
11:04 PM 17.6 °F 15.8 °F 93% 30.53 in 10.0 mi North - - N/A   Clear
11:24 PM 19.4 °F 15.8 °F 86% 30.53 in 10.0 mi North - - N/A   Clear
11:44 PM 19.4 °F 17.6 °F 93% 30.53 in 10.0 mi North - - N/A   Clear